Tracking 26544 objects as of 9-Dec-2022
HD Live streaming from Space Station
objects crossing your sky now

LUCKY-7

Track LUCKY-7 now!
10-day predictions
LUCKY-7 is classified as:


NORAD ID: 44406
Int'l Code: 2019-038W
Perigee: 505.9 km
Apogee: 532.8 km
Inclination: 97.7 °
Period: 94.9 minutes
Semi major axis: 6890 km
RCS: Unknown
Launch date: July 5, 2019
Source: United States (US)
Launch site: VOSTOCHNY COSMODROME (VOSTO)

Uplink (MHz):
Downlink (MHz): 437.525
Beacon (MHz):
Mode: 4k8/9k6 GFSK
Call sign:
Status: Active

aabbcc
Your satellite tracking list
Your tracking list is empty




NASA's NSSDC Master Catalog

Two Line Element Set (TLE):
1 44406U 19038W   22342.64712888  .00007772  00000-0  38482-3 0  9997
2 44406  97.6612 313.1047 0019513 248.1570 111.7588 15.17905703189362
Source of the keplerian elements: AFSPC